World > North America > United States > New York > Salisbury

Hourly Salisbury, NY Regional Weather

Feedback E-mail the Weather

Quick WX

Salisbury, NY Weather Maps

°F °C°F °C
Salisbury Weather Map
UTC Time: 8/11/2022, 14:48
Your Time:

Salisbury, NY Regional Weather

Expires:202208111500;;913733
ASUS41 KGYX 111411
RWRGYX
WEATHER ROUNDUP FOR MAINE AND NEW HAMPSHIRE
NATIONAL WEATHER SERVICE GRAY ME
1000 AM EDT THU AUG 11 2022


MAZ007-012-024-CTZ003-RIZ002-NYZ038-NYZ072-111500-
SOUTHERN NEW ENGLAND AND NY
  
CITY           SKY/WX    TMP DP  RH WIND       PRES   REMARKS
BOSTON         PTSUNNY   75  66  73 SE8       29.92S                  
WORCESTER      MOSUNNY   70  61  73 W7        29.95S                  
NANTUCKET      CLOUDY    73  67  81 SE10      29.93S                  
PROVIDENCE     LGT RAIN  73  70  90 CALM      29.92S                  
HARTFORD       PTSUNNY   75  61  61 VRB3      29.92F                  
ALBANY         MOSUNNY   75  61  61 VRB3      29.93F                  
NEW YORK CITY  PTSUNNY   78  69  73 N7        29.90F                  
$$


SKY/WX - Weather  TMP - Temperature  DP - Dew Point  RH - Humidity
WIND - Wind Direction/Speed PRES - Barometric Pressure VSB - Visibility
WCI - Wind Chill Index E13G22 Wind - East Wind 13 mph/Gusts of 22 mph

Trending Headlines

Salisbury Radar Loop



Salisbury Quick Facts


National Two Day Weather Forecast


E-mail the Salisbury Weather Forecast

Voice your opinion or tell us about page issues...